Time,TemperatureF,DewpointF,PressureIn,WindDirection,WindDirectionDegrees,WindSpeedMPH,WindSpeedGustMPH,Humidity,HourlyPrecipIn,Conditions,Clouds,dailyrainin,SoftwareType,DateUTC
2013-11-05 00:00:00,33.3,27.0,30.60,ENE,74,0.0,0.0,77,0.00,,,0.00,weatherlink.com 1.10,2013-11-05 05:00:00,
2013-11-05 00:15:00,33.2,27.0,30.60,ENE,74,0.0,0.0,77,0.00,,,0.00,weatherlink.com 1.10,2013-11-05 05:15:00,
2013-11-05 00:30:00,33.2,27.0,30.60,ENE,74,0.0,0.0,77,0.00,,,0.00,weatherlink.com 1.10,2013-11-05 05:30:00,
2013-11-05 00:45:00,33.3,27.0,30.60,ENE,74,0.0,0.0,77,0.00,,,0.00,weatherlink.com 1.10,2013-11-05 05:45:00,
2013-11-05 01:00:00,33.7,27.0,30.60,ENE,74,0.0,0.0,77,0.00,,,0.00,weatherlink.com 1.10,2013-11-05 06:00:00,
2013-11-05 01:15:00,34.0,28.0,30.60,ENE,74,0.0,0.0,77,0.00,,,0.00,weatherlink.com 1.10,2013-11-05 06:15:00,
2013-11-05 01:30:00,34.1,27.0,30.59,ENE,74,0.0,0.0,74,0.00,,,0.00,weatherlink.com 1.10,2013-11-05 06:30:00,
2013-11-05 01:45:00,34.4,27.0,30.58,NE,36,0.0,2.0,73,0.00,,,0.00,weatherlink.com 1.10,2013-11-05 06:45:00,
2013-11-05 02:00:00,34.6,26.0,30.59,NE,36,0.0,0.0,72,0.00,,,0.00,weatherlink.com 1.10,2013-11-05 07:00:00,
2013-11-05 02:15:00,34.6,27.0,30.57,NE,36,0.0,0.0,73,0.00,,,0.00,weatherlink.com 1.10,2013-11-05 07:15:00,
2013-11-05 02:30:00,35.0,27.0,30.56,NE,36,0.0,0.0,72,0.00,,,0.00,weatherlink.com 1.10,2013-11-05 07:30:00,
2013-11-05 02:45:00,35.1,27.0,30.56,NE,36,0.0,0.0,73,0.00,,,0.00,weatherlink.com 1.10,2013-11-05 07:45:00,
2013-11-05 03:00:00,35.0,28.0,30.55,NE,36,0.0,0.0,74,0.00,,,0.00,weatherlink.com 1.10,2013-11-05 08:00:00,
2013-11-05 03:15:00,34.6,27.0,30.56,NE,36,0.0,0.0,75,0.00,,,0.00,weatherlink.com 1.10,2013-11-05 08:15:00,
2013-11-05 03:30:00,34.1,27.0,30.57,NE,36,0.0,0.0,76,0.00,,,0.00,weatherlink.com 1.10,2013-11-05 08:30:00,
2013-11-05 03:45:00,33.5,27.0,30.57,NE,36,0.0,0.0,78,0.00,,,0.00,weatherlink.com 1.10,2013-11-05 08:45:00,
2013-11-05 04:00:00,33.3,27.0,30.57,NE,36,0.0,0.0,78,0.00,,,0.00,weatherlink.com 1.10,2013-11-05 09:00:00,
2013-11-05 04:15:00,33.7,28.0,30.57,NE,36,0.0,0.0,78,0.00,,,0.00,weatherlink.com 1.10,2013-11-05 09:15:00,
2013-11-05 04:30:00,33.9,28.0,30.57,NE,36,0.0,0.0,79,0.00,,,0.00,weatherlink.com 1.10,2013-11-05 09:30:00,
2013-11-05 04:45:00,34.1,28.0,30.58,NE,36,0.0,0.0,78,0.00,,,0.00,weatherlink.com 1.10,2013-11-05 09:45:00,
2013-11-05 05:00:00,34.3,28.0,30.58,NE,36,0.0,0.0,78,0.00,,,0.00,weatherlink.com 1.10,2013-11-05 10:00:00,
2013-11-05 05:15:00,34.5,29.0,30.58,NE,36,0.0,0.0,79,0.00,,,0.00,weatherlink.com 1.10,2013-11-05 10:15:00,
2013-11-05 05:30:00,34.8,29.0,30.58,NE,36,0.0,0.0,79,0.00,,,0.00,weatherlink.com 1.10,2013-11-05 10:30:00,
2013-11-05 05:45:00,35.0,29.0,30.58,NE,36,0.0,0.0,79,0.00,,,0.00,weatherlink.com 1.10,2013-11-05 10:45:00,
2013-11-05 06:01:00,34.9,29.0,30.58,NE,36,0.0,0.0,78,0.00,,,0.00,weatherlink.com 1.10,2013-11-05 11:01:00,
2013-11-05 06:15:00,34.5,29.0,30.58,NE,36,0.0,0.0,80,0.00,,,0.00,weatherlink.com 1.10,2013-11-05 11:15:00,
2013-11-05 06:30:00,34.2,29.0,30.58,NE,36,0.0,0.0,81,0.00,,,0.00,weatherlink.com 1.10,2013-11-05 11:30:00,
2013-11-05 06:45:00,33.9,29.0,30.59,NE,36,0.0,0.0,82,0.00,,,0.00,weatherlink.com 1.10,2013-11-05 11:45:00,
2013-11-05 07:00:00,33.7,29.0,30.59,NE,36,0.0,0.0,83,0.00,,,0.00,weatherlink.com 1.10,2013-11-05 12:00:00,
2013-11-05 07:15:00,34.1,30.0,30.59,NE,36,0.0,0.0,83,0.00,,,0.00,weatherlink.com 1.10,2013-11-05 12:15:00,
2013-11-05 07:30:00,35.0,30.0,30.59,NE,36,0.0,0.0,83,0.00,,,0.00,weatherlink.com 1.10,2013-11-05 12:30:00,
2013-11-05 07:45:00,37.4,32.0,30.58,ENE,57,0.0,2.0,80,0.00,,,0.00,weatherlink.com 1.10,2013-11-05 12:45:00,
2013-11-05 08:00:00,39.3,33.0,30.58,West,281,0.0,2.0,77,0.00,,,0.00,weatherlink.com 1.10,2013-11-05 13:00:00,
2013-11-05 08:15:00,40.7,33.0,30.59,NNE,32,0.0,2.0,75,0.00,,,0.00,weatherlink.com 1.10,2013-11-05 13:15:00,
2013-11-05 08:30:00,41.9,34.0,30.58,NE,42,1.0,2.0,74,0.00,,,0.00,weatherlink.com 1.10,2013-11-05 13:30:00,
2013-11-05 08:46:00,43.1,35.0,30.59,NW,317,0.0,3.0,72,0.00,,,0.00,weatherlink.com 1.10,2013-11-05 13:46:00,
2013-11-05 09:01:00,44.6,36.0,30.59,WNW,291,0.0,4.0,71,0.00,,,0.00,weatherlink.com 1.10,2013-11-05 14:01:00,
2013-11-05 09:16:00,46.1,36.0,30.59,NW,320,1.0,2.0,69,0.00,,,0.00,weatherlink.com 1.10,2013-11-05 14:16:00,
2013-11-05 09:31:00,47.9,38.0,30.59,SSE,163,0.0,1.0,68,0.00,,,0.00,weatherlink.com 1.10,2013-11-05 14:31:00,
2013-11-05 09:46:00,49.4,39.0,30.59,North,355,0.0,2.0,67,0.00,,,0.00,weatherlink.com 1.10,2013-11-05 14:46:00,
2013-11-05 10:01:00,50.5,39.0,30.59,North,355,3.0,3.0,66,0.00,,,0.00,weatherlink.com 1.10,2013-11-05 15:01:00,
2013-11-05 10:16:00,52.1,41.0,30.58,SE,129,0.0,4.0,67,0.00,,,0.00,weatherlink.com 1.10,2013-11-05 15:16:00,
2013-11-05 10:31:00,54.1,42.0,30.58,ESE,118,2.0,3.0,65,0.00,,,0.00,weatherlink.com 1.10,2013-11-05 15:31:00,
2013-11-05 10:46:00,54.2,42.0,30.58,SE,126,0.0,3.0,64,0.00,,,0.00,weatherlink.com 1.10,2013-11-05 15:46:00,
2013-11-05 11:01:00,55.2,42.0,30.58,ENE,74,1.0,4.0,61,0.00,,,0.00,weatherlink.com 1.10,2013-11-05 16:01:00,
2013-11-05 11:16:00,55.5,42.0,30.58,ESE,103,1.0,4.0,60,0.00,,,0.00,weatherlink.com 1.10,2013-11-05 16:16:00,
2013-11-05 11:31:00,55.5,42.0,30.57,ESE,118,3.0,4.0,60,0.00,,,0.00,weatherlink.com 1.10,2013-11-05 16:31:00,
2013-11-05 11:46:00,55.0,41.0,30.56,ENE,59,1.0,4.0,60,0.00,,,0.00,weatherlink.com 1.10,2013-11-05 16:46:00,
2013-11-05 12:01:00,55.0,41.0,30.55,SE,142,0.0,3.0,60,0.00,,,0.00,weatherlink.com 1.10,2013-11-05 17:01:00,
2013-11-05 12:16:00,56.1,41.0,30.54,SSE,153,1.0,7.0,58,0.00,,,0.00,weatherlink.com 1.10,2013-11-05 17:16:00,
2013-11-05 12:31:00,56.7,41.0,30.54,ESE,112,0.0,5.0,57,0.00,,,0.00,weatherlink.com 1.10,2013-11-05 17:31:00,
2013-11-05 12:46:00,56.3,41.0,30.53,NE,47,2.0,5.0,58,0.00,,,0.00,weatherlink.com 1.10,2013-11-05 17:46:00,
2013-11-05 13:01:00,56.2,42.0,30.54,ESE,119,0.0,4.0,60,0.00,,,0.00,weatherlink.com 1.10,2013-11-05 18:01:00,
2013-11-05 13:16:00,56.3,42.0,30.53,ESE,123,2.0,4.0,60,0.00,,,0.00,weatherlink.com 1.10,2013-11-05 18:16:00,
2013-11-05 13:31:00,56.0,42.0,30.52,ESE,113,1.0,4.0,60,0.00,,,0.00,weatherlink.com 1.10,2013-11-05 18:31:00,
2013-11-05 13:46:00,54.9,42.0,30.52,SSE,161,0.0,5.0,62,0.00,,,0.00,weatherlink.com 1.10,2013-11-05 18:46:00,
2013-11-05 14:01:00,54.9,42.0,30.52,SE,139,2.0,4.0,62,0.00,,,0.00,weatherlink.com 1.10,2013-11-05 19:01:00,
2013-11-05 14:16:00,54.8,42.0,30.51,East,91,1.0,5.0,63,0.00,,,0.00,weatherlink.com 1.10,2013-11-05 19:16:00,
2013-11-05 14:31:00,54.3,42.0,30.51,ESE,123,2.0,5.0,64,0.00,,,0.00,weatherlink.com 1.10,2013-11-05 19:31:00,
2013-11-05 14:46:00,53.9,42.0,30.51,SSE,159,1.0,3.0,65,0.00,,,0.00,weatherlink.com 1.10,2013-11-05 19:46:00,
2013-11-05 15:01:00,53.9,42.0,30.50,SE,134,1.0,2.0,65,0.00,,,0.00,weatherlink.com 1.10,2013-11-05 20:01:00,
2013-11-05 15:16:00,53.5,42.0,30.49,SE,138,3.0,4.0,66,0.00,,,0.00,weatherlink.com 1.10,2013-11-05 20:16:00,
2013-11-05 15:32:00,53.1,42.0,30.50,SE,140,3.0,4.0,67,0.00,,,0.00,weatherlink.com 1.10,2013-11-05 20:32:00,
2013-11-05 15:47:00,52.7,42.0,30.50,SE,130,3.0,6.0,68,0.00,,,0.00,weatherlink.com 1.10,2013-11-05 20:47:00,
2013-11-05 16:02:00,52.3,42.0,30.50,East,99,1.0,5.0,69,0.00,,,0.00,weatherlink.com 1.10,2013-11-05 21:02:00,
2013-11-05 16:17:00,52.1,43.0,30.50,SSW,197,1.0,4.0,70,0.00,,,0.00,weatherlink.com 1.10,2013-11-05 21:17:00,
2013-11-05 16:32:00,51.9,42.0,30.49,SSE,147,1.0,3.0,70,0.00,,,0.00,weatherlink.com 1.10,2013-11-05 21:32:00,
2013-11-05 16:47:00,51.6,42.0,30.49,SE,145,1.0,2.0,70,0.00,,,0.00,weatherlink.com 1.10,2013-11-05 21:47:00,
2013-11-05 17:02:00,51.4,42.0,30.48,SE,146,0.0,4.0,71,0.00,,,0.00,weatherlink.com 1.10,2013-11-05 22:02:00,
2013-11-05 17:17:00,51.1,42.0,30.48,SE,138,0.0,3.0,71,0.00,,,0.00,weatherlink.com 1.10,2013-11-05 22:17:00,
2013-11-05 17:32:00,50.8,42.0,30.49,SE,130,0.0,2.0,73,0.00,,,0.00,weatherlink.com 1.10,2013-11-05 22:32:00,
2013-11-05 17:47:00,50.5,43.0,30.50,SE,130,0.0,2.0,74,0.00,,,0.00,weatherlink.com 1.10,2013-11-05 22:47:00,
2013-11-05 18:02:00,50.1,42.0,30.50,SE,130,0.0,1.0,74,0.00,,,0.00,weatherlink.com 1.10,2013-11-05 23:02:00,
2013-11-05 18:17:00,49.9,42.0,30.50,SE,130,0.0,0.0,75,0.00,,,0.00,weatherlink.com 1.10,2013-11-05 23:17:00,
2013-11-05 18:32:00,49.5,42.0,30.50,SE,130,0.0,0.0,76,0.00,,,0.00,weatherlink.com 1.10,2013-11-05 23:32:00,
2013-11-05 18:47:00,49.0,42.0,30.50,SE,130,0.0,0.0,77,0.00,,,0.00,weatherlink.com 1.10,2013-11-05 23:47:00,
2013-11-05 19:02:00,48.4,42.0,30.50,SE,130,0.0,0.0,78,0.00,,,0.00,weatherlink.com 1.10,2013-11-06 00:02:00,
2013-11-05 19:17:00,47.8,42.0,30.50,SE,130,0.0,0.0,79,0.00,,,0.00,weatherlink.com 1.10,2013-11-06 00:17:00,
2013-11-05 19:32:00,47.3,42.0,30.51,SE,130,0.0,0.0,81,0.00,,,0.00,weatherlink.com 1.10,2013-11-06 00:32:00,
2013-11-05 19:47:00,46.9,42.0,30.50,SE,130,0.0,0.0,82,0.00,,,0.00,weatherlink.com 1.10,2013-11-06 00:47:00,
2013-11-05 20:02:00,46.9,42.0,30.49,SE,130,0.0,0.0,83,0.00,,,0.00,weatherlink.com 1.10,2013-11-06 01:02:00,
2013-11-05 20:17:00,46.7,42.0,30.49,SE,130,0.0,0.0,84,0.00,,,0.00,weatherlink.com 1.10,2013-11-06 01:17:00,
2013-11-05 20:32:00,47.0,42.0,30.48,SE,130,0.0,0.0,84,0.00,,,0.00,weatherlink.com 1.10,2013-11-06 01:32:00,
2013-11-05 20:47:00,47.1,43.0,30.48,SE,130,0.0,0.0,84,0.00,,,0.00,weatherlink.com 1.10,2013-11-06 01:47:00,
2013-11-05 21:03:00,47.0,42.0,30.48,SE,130,0.0,0.0,84,0.00,,,0.00,weatherlink.com 1.10,2013-11-06 02:03:00,
2013-11-05 21:17:00,47.0,42.0,30.48,SE,130,0.0,0.0,84,0.00,,,0.00,weatherlink.com 1.10,2013-11-06 02:17:00,
2013-11-05 21:32:00,47.1,43.0,30.48,SE,130,0.0,0.0,85,0.00,,,0.00,weatherlink.com 1.10,2013-11-06 02:32:00,
2013-11-05 21:47:00,47.2,43.0,30.47,SE,130,0.0,0.0,84,0.00,,,0.00,weatherlink.com 1.10,2013-11-06 02:47:00,
2013-11-05 22:02:00,46.9,43.0,30.47,SE,130,0.0,0.0,85,0.00,,,0.00,weatherlink.com 1.10,2013-11-06 03:02:00,
2013-11-05 22:17:00,46.5,42.0,30.45,SE,130,0.0,0.0,85,0.00,,,0.00,weatherlink.com 1.10,2013-11-06 03:17:00,
2013-11-05 22:32:00,46.1,42.0,30.44,SE,130,0.0,0.0,86,0.00,,,0.00,weatherlink.com 1.10,2013-11-06 03:32:00,
2013-11-05 22:47:00,45.9,42.0,30.45,SE,130,0.0,0.0,86,0.00,,,0.00,weatherlink.com 1.10,2013-11-06 03:47:00,
2013-11-05 23:02:00,45.5,42.0,30.45,SE,130,0.0,0.0,87,0.00,,,0.00,weatherlink.com 1.10,2013-11-06 04:02:00,
2013-11-05 23:17:00,45.1,42.0,30.44,SE,130,0.0,0.0,87,0.00,,,0.00,weatherlink.com 1.10,2013-11-06 04:17:00,
2013-11-05 23:32:00,44.9,42.0,30.43,SE,130,0.0,0.0,88,0.00,,,0.00,weatherlink.com 1.10,2013-11-06 04:32:00,
2013-11-05 23:47:00,44.6,42.0,30.44,SE,130,0.0,0.0,89,0.00,,,0.00,weatherlink.com 1.10,2013-11-06 04:47:00,